Location: Unspecified
(58.9933°N, 5.6375°E)
Time: 01:31:56
(UTC+01:00)

Okean 3 - Visible Passes

Search period start: 28 February 2015 00:00
Search period end: 10 March 2015 00:00
Orbit: 581 x 607 km, 82.5° (Epoch: 26 February)

Date Brightness Start Highest point End Pass type
(mag) Time Alt. Az. Time Alt. Az. Time Alt. Az.
28 Feb 6.4 03:27:54 10° ESE 03:29:48 13° E 03:31:52 10° NE visible
28 Feb 3.7 05:03:30 19° S 05:06:28 71° E 05:10:45 10° NNE visible
28 Feb 4.7 06:40:52 10° WSW 06:44:19 23° WNW 06:47:43 10° N visible
01 Mar 6.1 03:36:47 12° ESE 03:39:08 17° E 03:42:00 10° NE visible
01 Mar 3.4 05:13:26 24° SSW 05:15:59 85° WNW 05:20:17 10° NNE visible
01 Mar 5.0 06:51:04 10° W 06:54:04 18° NW 06:56:58 10° N visible
02 Mar 5.7 03:46:38 17° ESE 03:48:29 23° E 03:51:53 10° NE visible
02 Mar 3.5 05:23:17 27° SW 05:25:31 62° WNW 05:29:46 10° N visible
03 Mar 5.2 03:56:25 25° SE 03:57:50 31° E 04:01:38 10° NNE visible
03 Mar 3.8 05:33:04 26° SW 05:35:06 45° WNW 05:39:14 10° N visible
04 Mar 4.6 04:06:09 34° SE 04:07:15 41° E 04:11:17 10° NNE visible
04 Mar 4.2 05:42:47 23° WSW 05:44:43 34° WNW 05:48:38 10° N visible
05 Mar 6.4 02:39:26 10° E 02:40:09 10° ENE 02:41:02 10° ENE visible
05 Mar 4.0 04:15:49 47° SE 04:16:40 57° E 04:20:53 10° NNE visible
05 Mar 4.6 05:52:28 19° W 05:54:22 26° WNW 05:58:00 10° N visible
06 Mar 6.1 02:48:49 14° E 02:49:25 14° E 02:51:45 10° NE visible
06 Mar 3.5 04:25:27 61° S 04:26:08 79° E 04:30:25 10° NNE visible
06 Mar 4.9 06:02:06 16° W 06:04:04 21° WNW 06:07:17 10° N visible
07 Mar 5.8 02:58:25 19° E 02:58:43 19° E 03:01:46 10° NE visible
07 Mar 3.3 04:35:03 63° SW 04:35:38 76° WNW 04:39:54 10° NNE visible
07 Mar 5.2 06:11:41 12° W 06:13:48 16° NW 06:16:28 10° NNW visible
08 Mar 5.4 03:07:59 25° E 03:08:03 25° E 03:11:34 10° NNE visible
08 Mar 3.5 04:44:37 51° WSW 04:45:10 56° WNW 04:49:22 10° N visible
08 Mar 5.5 06:21:32 10° WNW 06:23:34 13° NW 06:25:29 10° NNW visible
09 Mar 4.9 03:17:32 34° E 03:17:32 34° E 03:21:16 10° NNE visible
09 Mar 3.9 04:54:10 39° W 04:54:44 41° WNW 04:58:47 10° N visible
09 Mar 5.7 06:32:52 10° NW 06:33:22 10° NW 06:33:43 10° NW visible
